This is the latest recevied weather packets stored in our database for station/object M0JUI-1. If no packets are shown the sender has not sent any weather packets the latest 10 day(s).
| Time | Temp. | Humidity | Pressure | Rain* | Wind** | Luminosity | Snow |
|---|---|---|---|---|---|---|---|
| 1777714646 | 12.78° C | 99% | 1017.3 hPa | 0 mm | - | 334 W/m² | - |
| 1777714346 | 12.78° C | 99% | 1017.3 hPa | 0 mm | - | 225 W/m² | - |
| 1777714046 | 12.78° C | 99% | 1017.6 hPa | 0 mm | - | 375 W/m² | - |
| 1777713734 | 12.78° C | 99% | 1017.7 hPa | 0 mm | - | 219 W/m² | - |
| 1777713434 | 12.22° C | 99% | 1017.7 hPa | 0 mm | - | 242 W/m² | - |
| 1777713134 | 12.22° C | 99% | 1017.6 hPa | 0 mm | - | 195 W/m² | - |
| 1777712822 | 12.22° C | 99% | 1017.5 hPa | 0 mm | - | 205 W/m² | - |
| 1777712522 | 12.22° C | 99% | 1017.6 hPa | 0 mm | - | 218 W/m² | - |
| 1777712223 | 12.22° C | 99% | 1017.5 hPa | 0 mm | - | 284 W/m² | - |
| 1777711910 | 11.67° C | 99% | 1017.4 hPa | 0 mm | - | 296 W/m² | - |
| 1777711610 | 12.22° C | 99% | 1017.5 hPa | 0 mm | - | 196 W/m² | - |
| 1777711310 | 12.22° C | 99% | 1017.4 hPa | 0 mm | - | 262 W/m² | - |
| 1777710998 | 12.22° C | 99% | 1017.6 hPa | 0 mm | - | 253 W/m² | - |
| 1777710699 | 12.22° C | 99% | 1017.3 hPa | 0 mm | - | 287 W/m² | - |
| 1777710398 | 12.22° C | 99% | 1017.4 hPa | 0 mm | - | 305 W/m² | - |
| 1777710098 | 12.78° C | 98% | 1017.7 hPa | 0 mm | - | 1139 W/m² | - |
| 1777709798 | 12.78° C | 99% | 1017.6 hPa | 0 mm | - | 374 W/m² | - |
| 1777709499 | 12.22° C | 93% | 1017.4 hPa | 0 mm | - | 312 W/m² | - |
| 1777709198 | 11.67° C | 91% | 1017.7 hPa | 0 mm | - | 183 W/m² | - |
| 1777708887 | 11.11° C | 90% | 1017.8 hPa | 0 mm | - | 141 W/m² | - |
| 1777708586 | 11.11° C | 88% | 1017.7 hPa | 0 mm | - | 143 W/m² | - |
| 1777708286 | 11.11° C | 87% | 1017.6 hPa | 0 mm | - | 120 W/m² | - |
| 1777707986 | 10.56° C | 86% | 1017.9 hPa | 0 mm | - | 133 W/m² | - |
| 1777707687 | 10.56° C | 87% | 1018 hPa | 0 mm | - | 131 W/m² | - |
| 1777707387 | 10° C | 88% | 1017.8 hPa | 0 mm | - | 125 W/m² | - |
* Rain latest hour (hover to see other rain measurements)
** Current wind speed in m/s (hover to see current wind gust speed)